Location: La Bilong�re
(48.1297°N, 1.4584°W)
Time: 01:28:38
(UTC+00:00)

Terra - Pass Details

Date: 03 March 2021
Orbit: 701 x 703 km, 98.2° (Epoch: 16 April)

Event Time Altitude Azimuth Distance (km) Brightness Sun altitude
Exits shadow 21:21:35 14° 3° (N) 1,922 4.3 -34.1°
Drops below altitude 10° 21:22:17 10° 360° (N) 2,183 4.7 -34.2°
Sets 21:24:39 0° 353° (N) 3,106 5.7 -34.5°
